Time[GMT],air_temperature[C](-3m),wind_speed[m/s](-4m),wind_gust[m/s](-4m),visibility[m](-3m),barometric_pressure[millibars](-3m),wind_2_direction[degrees_true](-4m),wind_2_gust[m/s](-4m),wind_2_gust_1s[m/s](-4m),wind_2_min[m/s](-4m),wind_2_percent_good[1](-4m),wind_2_speed[m/s](-4m),wind_direction[degrees_true](-4m),wind_gust_1s[m/s](-4m),wind_min[m/s](-4m)
2013-06-23 17:00,14.8,,,2961,1018.82,188.90,7.41,8.08,4.03,1.00,6.11,,,
2013-06-23 18:00,14.9,,,2960,1018.45,196.90,7.41,8.59,4.88,1.00,6.55,,,
2013-06-23 19:00,15.1,,,2960,1018.21,202.40,7.51,8.28,4.25,1.00,6.27,,,
2013-06-23 20:00,15.0,,,2961,1017.78,206.10,5.15,5.87,2.81,1.00,4.39,,,
2013-06-23 21:00,14.9,,,2961,1017.04,195.90,5.90,6.58,3.48,1.00,5.17,,,
2013-06-23 22:00,15.1,,,2961,1016.67,191.20,5.33,6.25,2.97,1.00,4.66,,,
2013-06-23 23:00,14.9,,,2960,1016.24,198.50,4.79,5.65,2.87,1.00,4.17,,,
2013-06-24 00:00,14.9,,,2960,1016.00,204.30,6.67,7.49,4.14,1.00,5.81,,,
2013-06-24 01:00,15.0,,,2960,1015.69,200.90,6.39,7.39,4.10,1.00,5.67,,,
2013-06-24 02:00,15.1,,,2960,1015.75,220.50,9.40,10.13,5.87,1.00,7.60,,,
2013-06-24 03:00,15.2,,,2960,1014.34,203.80,8.31,9.09,4.48,1.00,6.87,,,
2013-06-24 04:00,15.3,,,2960,1014.16,226.10,7.44,8.52,3.56,1.00,5.75,,,
2013-06-24 05:00,15.1,,,2960,1014.22,229.60,5.72,6.54,2.75,1.00,4.82,,,
2013-06-24 06:00,14.6,,,2960,1014.03,233.70,5.16,6.29,2.33,1.00,4.37,,,
2013-06-24 07:00,14.8,,,2960,1013.73,221.00,5.82,7.20,2.48,1.00,4.50,,,
2013-06-24 08:00,14.8,,,2960,1013.73,235.50,7.06,7.84,4.02,1.00,6.14,,,
2013-06-24 09:00,15.0,,,2960,1013.42,230.40,9.06,10.23,5.43,1.00,7.76,,,
2013-06-24 10:00,14.3,,,2960,1013.36,229.30,6.80,7.61,3.83,1.00,5.94,,,
2013-06-24 11:00,14.4,,,2914,1012.99,234.40,8.77,10.01,5.36,1.00,7.55,,,
2013-06-24 13:00,14.4,,,2896,1012.69,227.40,8.21,9.44,4.95,1.00,7.00,,,
2013-06-24 14:00,14.6,,,2960,1012.26,229.00,7.47,8.65,4.13,1.00,6.46,,,
2013-06-24 15:00,14.4,,,2960,1012.01,234.70,6.61,7.65,3.55,1.00,5.80,,,
2013-06-24 16:00,14.4,,,2960,1011.64,227.40,6.92,7.68,3.61,1.00,5.56,,,
2013-06-24 17:00,14.6,,,2961,1011.40,232.30,6.41,7.23,3.52,1.00,5.50,,,
2013-06-24 18:00,14.8,,,2961,1011.03,242.70,6.94,8.03,3.77,1.00,5.95,,,
2013-06-24 19:00,14.9,,,2961,1010.66,242.30,5.10,6.07,2.53,1.00,4.50,,,
2013-06-24 20:00,15.3,,,2961,1010.48,259.50,4.97,5.49,2.57,1.00,4.21,,,
2013-06-24 21:00,15.8,,,2961,1009.93,249.30,4.39,5.19,2.29,1.00,3.90,,,
2013-06-24 22:00,15.9,,,2888,1009.68,249.20,5.02,5.82,3.37,1.00,4.62,,,
2013-06-24 23:00,15.9,,,2775,1009.99,230.70,4.38,5.14,2.41,1.00,3.80,,,
2013-06-25 00:00,,,,,,,,,,,,,,
2013-06-25 01:00,,,,,,,,,,,,,,
2013-06-25 02:00,15.6,,,2960,1010.11,228.00,4.93,5.55,3.01,1.00,4.44,,,
2013-06-25 03:00,16.2,,,2960,1009.68,242.40,6.71,7.16,3.99,1.00,5.68,,,
2013-06-25 04:00,16.2,,,2960,1009.62,257.40,7.41,8.22,4.29,1.00,6.54,,,
2013-06-25 05:00,16.4,,,2960,1009.19,264.10,9.38,10.41,5.88,1.00,8.13,,,
2013-06-25 06:00,17.0,,,2960,1009.13,287.30,5.90,6.87,3.39,1.00,5.06,,,
2013-06-25 07:00,16.1,,,2960,1008.70,264.10,5.59,6.46,2.84,1.00,4.68,,,
2013-06-25 08:00,15.4,,,2960,1009.19,261.60,5.85,6.46,3.67,1.00,5.15,,,
2013-06-25 09:00,14.8,,,2960,1009.38,248.80,4.79,5.61,1.97,1.00,3.79,,,
2013-06-25 10:00,14.8,,,2960,1010.11,253.70,4.51,5.02,2.18,1.00,3.60,,,
2013-06-25 11:00,15.2,,,2960,1010.36,259.80,5.17,5.76,2.79,1.00,4.24,,,
2013-06-25 12:00,14.5,,,2960,1010.60,240.30,2.93,3.59,1.08,1.00,2.56,,,
2013-06-25 13:00,14.8,,,2961,1010.17,238.10,4.49,5.25,3.09,1.00,4.05,,,
2013-06-25 14:00,,,,,,,,,,,,,,
2013-06-25 15:00,15.5,,,2961,1009.68,234.70,4.87,5.73,3.39,1.00,4.44,,,
2013-06-25 16:00,15.6,,,2961,1009.74,243.80,4.38,4.96,2.76,1.00,3.91,,,
2013-06-25 18:00,15.7,,,2961,1009.07,224.20,5.00,5.39,3.06,1.00,4.36,,,
2013-06-25 19:00,15.8,,,2961,1008.52,225.80,5.46,6.00,3.56,1.00,4.82,,,
2013-06-25 20:00,15.8,,,2961,1007.54,203.60,4.95,5.59,3.04,1.00,4.34,,,
2013-06-25 21:00,16.1,,,2960,1006.93,210.30,5.79,6.46,3.39,1.00,5.04,,,
2013-06-25 22:00,16.1,,,2960,1006.93,207.50,6.23,6.68,3.22,1.00,5.13,,,
2013-06-25 23:00,15.9,,,2960,1006.99,210.10,4.61,5.67,2.84,1.00,4.26,,,
2013-06-26 00:00,16.0,,,2960,1006.62,212.70,5.74,6.56,3.00,1.00,4.62,,,
2013-06-26 01:00,15.6,,,2960,1006.56,203.70,3.41,4.20,1.52,1.00,2.92,,,
2013-06-26 02:00,16.4,,,2960,1007.11,246.40,6.02,6.45,2.37,1.00,4.47,,,
2013-06-26 03:00,16.3,,,2960,1006.50,265.20,5.37,5.98,3.31,1.00,4.51,,,
2013-06-26 04:00,15.5,,,2960,1005.46,279.70,3.05,3.41,0.64,1.00,1.91,,,
2013-06-26 05:00,16.4,,,2960,1005.16,173.90,2.95,3.54,0.11,1.00,1.90,,,
2013-06-26 06:00,15.4,,,2960,1005.16,183.80,3.52,4.12,1.59,1.00,2.95,,,
2013-06-26 07:00,15.4,,,2960,1004.85,191.10,2.89,3.83,0.40,1.00,1.87,,,
2013-06-26 08:00,15.4,,,2960,1005.09,322.00,2.91,3.47,0.99,1.00,2.34,,,
2013-06-26 09:00,15.4,,,2960,1006.07,234.50,3.88,4.40,2.21,1.00,3.29,,,
2013-06-26 10:00,15.6,,,2960,1005.89,264.40,3.51,4.06,1.49,1.00,2.63,,,
2013-06-26 11:00,16.3,,,2960,1005.83,282.40,2.84,3.17,0.90,1.00,2.00,,,
2013-06-26 12:00,,,,,,,,,,,,,,
2013-06-26 13:00,16.5,,,2960,1006.44,318.40,1.53,2.16,0.67,1.00,1.29,,,
2013-06-26 14:00,15.9,,,2960,1007.05,288.80,2.25,2.75,1.10,1.00,1.95,,,
2013-06-26 15:00,16.0,,,2960,1007.36,323.60,2.24,2.95,0.46,1.00,1.62,,,
2013-06-26 16:00,15.9,,,2960,1007.36,62.60,2.90,3.50,1.54,1.00,2.48,,,
2013-06-26 17:00,15.8,,,2960,1007.60,82.20,2.79,3.40,1.01,1.00,2.38,,,
2013-06-26 18:00,15.1,,,2960,1007.72,54.90,5.64,6.02,3.21,1.00,4.70,,,
2013-06-26 19:00,13.8,,,2960,1007.91,52.70,7.12,8.17,2.66,1.00,6.04,,,
2013-06-26 20:00,13.7,,,2961,1008.46,57.50,8.19,8.97,2.99,1.00,6.62,,,
2013-06-26 21:00,13.4,,,2960,1008.34,46.86,8.87,9.98,5.03,1.00,7.82,,,
2013-06-26 22:00,13.3,,,2960,1009.38,37.48,8.43,9.45,4.79,1.00,7.10,,,
2013-06-26 23:00,13.0,,,2960,1009.32,45.36,8.54,9.40,4.95,1.00,7.28,,,
2013-06-27 00:00,13.0,,,2960,1009.56,40.62,7.78,8.76,4.58,1.00,6.76,,,
2013-06-27 01:00,13.0,,,2960,1009.68,58.50,8.09,8.52,4.73,1.00,6.86,,,
2013-06-27 02:00,13.3,,,2960,1009.81,61.20,6.63,7.01,3.61,1.00,5.41,,,
2013-06-27 03:00,13.5,,,2960,1009.25,72.50,5.52,6.49,2.79,1.00,4.58,,,
2013-06-27 04:00,13.4,,,2960,1010.23,39.11,5.42,6.45,2.24,1.00,4.42,,,
2013-06-27 05:00,13.3,,,2960,1010.36,66.20,4.17,4.87,2.13,1.00,3.57,,,
2013-06-27 06:00,13.2,,,2960,1010.30,70.80,5.66,6.27,3.29,1.00,4.81,,,
2013-06-27 07:00,13.0,,,2960,1010.54,55.70,4.34,5.49,2.34,1.00,3.74,,,
2013-06-27 08:00,13.1,,,2960,1010.11,67.40,5.50,6.13,3.22,1.00,4.84,,,
2013-06-27 09:00,13.4,,,2960,1010.30,94.40,4.30,4.81,1.93,1.00,3.33,,,
2013-06-27 10:00,13.5,,,2960,1010.79,54.80,3.40,4.03,1.04,1.00,2.84,,,
2013-06-27 11:00,13.4,,,2960,1011.15,85.80,3.22,4.01,1.17,1.00,2.56,,,
2013-06-27 12:00,13.8,,,2960,1011.15,112.20,4.39,5.04,2.28,1.00,3.74,,,
2013-06-27 13:00,13.7,,,2961,1011.95,113.60,3.31,4.02,1.06,1.00,2.31,,,
2013-06-27 15:00,,,,,,,,,,,,,,
2013-06-27 16:00,13.7,,,2961,1010.91,144.40,7.13,8.06,3.96,1.00,6.01,,,
2013-06-27 17:00,13.6,,,2960,1011.15,157.60,5.10,6.01,2.14,1.00,4.02,,,
2013-06-27 18:00,,,,,,,,,,,,,,
2013-06-27 19:00,14.3,,,2961,1011.21,102.80,5.00,5.77,3.22,1.00,4.47,,,
2013-06-27 20:00,14.0,,,2961,1010.66,96.10,5.96,6.39,3.91,1.00,5.19,,,
2013-06-27 21:00,13.5,,,2509,1010.42,105.80,6.42,7.35,3.80,1.00,5.50,,,
2013-06-27 22:00,13.4,,,2961,1010.54,90.90,6.34,7.07,3.61,1.00,5.35,,,
2013-06-28 00:00,13.3,,,2960,1010.60,115.60,7.66,8.18,4.41,1.00,6.53,,,
2013-06-28 01:00,13.4,,,2960,1010.66,105.20,8.43,9.02,5.18,1.00,6.97,,,
2013-06-28 02:00,13.4,,,2960,1010.48,92.90,8.99,9.48,4.84,1.00,7.27,,,
2013-06-28 03:00,13.4,,,2960,1010.11,93.20,10.03,11.22,5.29,1.00,8.33,,,
2013-06-28 04:00,13.4,,,2960,1009.56,91.60,10.88,11.52,5.56,1.00,8.88,,,
2013-06-28 05:00,,,,,,,,,,,,,,
2013-06-28 06:00,13.1,,,2960,1008.03,102.50,11.62,12.85,6.47,1.00,9.74,,,
2013-06-28 07:00,,,,,,,,,,,,,,
2013-06-28 08:00,12.9,,,2960,1006.87,106.30,7.95,8.84,4.65,1.00,7.19,,,
2013-06-28 09:00,13.1,,,2960,1006.81,108.60,7.73,9.04,4.25,1.00,6.64,,,
2013-06-28 10:00,13.2,,,2960,1007.17,107.60,6.11,6.71,3.52,1.00,5.35,,,
2013-06-28 11:00,13.2,,,2960,1006.87,106.60,6.98,7.99,4.46,1.00,6.19,,,
2013-06-28 12:00,13.5,,,2960,1007.11,107.80,6.31,7.42,3.74,1.00,5.64,,,
2013-06-28 13:00,13.9,,,2960,1006.13,102.70,6.21,6.79,3.57,1.00,5.39,,,
2013-06-28 14:00,14.3,,,2961,1005.64,122.50,5.61,6.30,2.94,1.00,4.59,,,
2013-06-28 15:00,15.5,,,2961,1005.22,147.90,6.73,7.57,3.45,1.00,5.58,,,
2013-06-28 16:00,15.3,,,2961,1004.73,147.30,8.40,9.19,4.49,1.00,7.16,,,
2013-06-28 17:00,15.6,,,2960,1003.87,163.60,9.56,10.73,5.84,1.00,8.19,,,
2013-06-28 18:00,15.6,,,2960,1003.69,175.60,8.84,10.08,4.87,1.00,7.68,,,
2013-06-28 19:00,15.5,,,2960,1003.32,176.70,7.52,8.38,3.70,1.00,6.19,,,
2013-06-28 20:00,16.1,,,2961,1003.02,179.10,9.94,10.95,4.99,1.00,8.23,,,
2013-06-28 21:00,15.8,,,2960,1002.89,167.80,8.22,9.53,4.43,1.00,7.22,,,
2013-06-28 22:00,15.7,,,2960,1002.77,179.50,9.87,11.11,5.04,1.00,8.38,,,
2013-06-28 23:00,15.8,,,2960,1002.65,183.50,11.41,13.48,5.81,1.00,9.31,,,
2013-06-29 00:00,15.6,,,2960,1003.14,177.80,10.44,11.63,5.22,1.00,8.85,,,
2013-06-29 01:00,15.4,,,2960,1003.75,177.30,9.80,11.32,5.81,1.00,8.50,,,
2013-06-29 02:00,15.2,,,2960,1003.69,174.00,10.39,11.55,5.52,1.00,8.69,,,
2013-06-29 03:00,15.1,,,2960,1003.32,175.00,9.87,10.98,3.18,1.00,8.11,,,
2013-06-29 04:00,14.7,,,2960,1003.50,176.20,10.26,11.45,4.64,1.00,7.58,,,
2013-06-29 05:00,14.8,,,2960,1003.08,181.60,8.45,9.78,5.26,1.00,7.61,,,
2013-06-29 06:00,14.6,,,2960,1002.16,175.80,8.90,10.29,4.73,1.00,7.61,,,
2013-06-29 07:00,14.6,,,2960,1002.22,178.80,8.16,9.07,4.35,1.00,6.91,,,
2013-06-29 08:00,15.0,,,2960,1001.98,183.90,8.75,9.74,5.33,1.00,7.65,,,
2013-06-29 09:00,15.1,,,2960,1002.22,189.00,8.83,9.84,4.91,1.00,7.63,,,
2013-06-29 10:00,14.8,,,2960,1002.89,180.30,7.64,9.11,4.20,1.00,6.72,,,
2013-06-29 11:00,14.8,,,2960,1003.26,176.80,7.71,9.11,3.92,1.00,6.67,,,
2013-06-29 12:00,15.0,,,2960,1003.50,183.60,7.81,8.92,4.12,1.00,6.68,,,
2013-06-29 13:00,14.8,,,2960,1003.75,180.20,8.46,9.65,4.55,1.00,7.33,,,
2013-06-29 14:00,15.0,,,2960,1003.63,190.20,9.42,10.59,5.31,1.00,8.07,,,
2013-06-29 15:00,14.4,,,2961,1002.40,184.40,5.72,6.76,1.99,1.00,4.75,,,
2013-06-29 16:00,14.3,,,2961,1003.08,174.50,8.14,9.38,4.73,1.00,7.13,,,
2013-06-29 17:00,15.2,,,2960,1003.26,179.00,11.31,12.68,5.85,1.00,9.94,,,
2013-06-29 18:00,15.3,,,2960,1003.75,192.60,11.37,12.21,6.67,1.00,9.61,,,
2013-06-29 19:00,14.9,,,2961,1004.12,198.10,10.08,11.59,5.12,1.00,8.72,,,
2013-06-29 20:00,14.7,,,2961,1003.87,198.70,8.13,9.00,4.01,1.00,6.98,,,
2013-06-29 21:00,14.9,,,2961,1004.18,195.60,10.47,11.32,5.29,1.00,8.63,,,
2013-06-29 22:00,14.9,,,2961,1004.24,199.20,9.41,10.54,4.69,1.00,8.06,,,
2013-06-29 23:00,15.2,,,2960,1004.42,199.30,10.63,12.23,4.99,1.00,9.27,,,
2013-06-30 00:00,15.1,,,2960,1005.34,199.90,10.74,11.91,4.45,1.00,9.07,,,
2013-06-30 01:00,14.6,,,2960,1006.01,194.10,9.03,10.33,5.34,1.00,7.63,,,
2013-06-30 02:00,14.6,,,2960,1006.56,190.60,9.15,10.78,4.96,1.00,7.86,,,
2013-06-30 03:00,14.6,,,2960,1006.93,192.60,9.51,10.75,4.02,1.00,8.20,,,
2013-06-30 04:00,14.7,,,2960,1007.30,198.10,9.99,10.94,5.76,1.00,8.28,,,
2013-06-30 05:00,14.4,,,2960,1007.42,204.00,9.31,9.83,4.93,1.00,7.65,,,
2013-06-30 06:00,14.0,,,2960,1007.30,203.00,7.10,8.45,2.70,1.00,6.13,,,
2013-06-30 07:00,14.1,,,2960,1007.23,196.80,7.78,8.72,3.91,1.00,6.62,,,
2013-06-30 08:00,14.0,,,2960,1007.30,199.70,7.51,8.45,4.06,1.00,6.55,,,
2013-06-30 09:00,13.8,,,2960,1007.85,203.00,6.42,7.30,3.58,1.00,5.40,,,
2013-06-30 10:00,13.6,,,2960,1008.28,194.70,5.97,6.98,2.91,1.00,4.83,,,
2013-06-30 11:00,13.6,,,2960,1009.07,198.00,5.85,6.97,2.73,1.00,5.01,,,
2013-06-30 12:00,13.6,,,2960,1010.05,194.90,5.68,6.55,2.50,1.00,4.78,,,
2013-06-30 13:00,13.7,,,2961,1010.42,193.60,6.98,8.57,3.53,1.00,5.83,,,
2013-06-30 14:00,14.0,,,2961,1010.72,199.60,7.21,8.38,3.69,1.00,5.84,,,
2013-06-30 15:00,13.8,,,2961,1011.40,197.70,6.57,7.59,3.33,1.00,5.50,,,
2013-06-30 16:00,13.8,,,2961,1011.28,193.50,6.33,7.47,2.67,1.00,5.27,,,
2013-06-30 17:00,13.8,,,2961,1011.52,190.20,5.42,6.16,2.82,1.00,4.79,,,
2013-06-30 18:00,13.9,,,2961,1011.40,183.40,6.79,7.21,3.03,1.00,5.77,,,
2013-06-30 19:00,13.9,,,2961,1011.34,183.00,6.26,7.05,3.56,1.00,5.45,,,
2013-06-30 20:00,14.1,,,2961,1011.70,196.80,6.70,7.34,3.47,1.00,5.53,,,
2013-06-30 21:00,14.3,,,2961,1011.83,192.20,7.52,8.75,4.84,1.00,6.65,,,
2013-06-30 22:00,14.4,,,2961,1012.07,197.30,8.86,9.51,4.57,1.00,7.20,,,
2013-06-30 23:00,14.2,,,2960,1012.62,189.70,8.03,8.84,4.84,1.00,6.91,,,
2013-07-01 00:00,14.3,,,2960,1013.18,198.90,8.13,9.68,4.39,1.00,7.09,,,
2013-07-01 01:00,14.3,,,2960,1013.54,201.40,7.42,8.51,4.14,1.00,6.48,,,
2013-07-01 02:00,14.2,,,2960,1013.85,201.00,7.29,8.34,4.27,1.00,6.47,,,
2013-07-01 03:00,14.2,,,2960,1014.10,196.60,7.68,8.90,4.01,1.00,6.63,,,
2013-07-01 04:00,14.8,,,2960,1014.40,200.10,9.04,9.97,4.32,1.00,6.80,,,
2013-07-01 05:00,14.7,,,2960,1014.77,204.00,7.20,8.53,4.01,1.00,6.45,,,
2013-07-01 06:00,14.6,,,2960,1014.77,201.90,9.60,11.02,6.29,1.00,8.39,,,
2013-07-01 07:00,14.3,,,2960,1014.59,205.30,7.99,9.15,4.37,1.00,6.76,,,
2013-07-01 08:00,13.9,,,2960,1014.22,190.60,6.79,7.48,3.75,1.00,6.03,,,
2013-07-01 09:00,14.1,,,2960,1014.28,185.00,7.63,8.40,5.29,1.00,6.87,,,
2013-07-01 10:00,14.4,,,2960,1014.65,194.50,7.28,8.34,4.60,1.00,6.44,,,
2013-07-01 11:00,14.3,,,2960,1015.20,208.40,7.47,8.88,4.10,1.00,6.68,,,
2013-07-01 12:00,14.4,,,2961,1015.69,216.90,6.68,7.39,4.18,1.00,5.76,,,
2013-07-01 13:00,14.4,,,2961,1016.12,221.70,5.85,6.92,3.31,1.00,5.07,,,
2013-07-01 14:00,14.1,,,2961,1016.49,211.00,5.18,5.93,2.47,1.00,4.44,,,
2013-07-01 15:00,14.2,,,2961,1017.16,201.70,6.02,6.94,3.25,1.00,5.12,,,
2013-07-01 16:00,14.4,,,2960,1017.28,209.40,5.52,6.54,1.01,1.00,4.51,,,
2013-07-01 17:00,14.3,,,2960,1017.53,210.50,4.46,5.41,1.71,1.00,3.59,,,
2013-07-01 18:00,14.3,,,2960,1017.41,191.70,7.62,8.50,1.12,1.00,4.18,,,
2013-07-01 19:00,14.4,,,2960,1017.90,194.50,3.44,4.26,1.42,1.00,2.90,,,
2013-07-01 20:00,14.4,,,2960,1017.59,186.20,2.87,4.16,0.61,1.00,2.40,,,
2013-07-01 21:00,14.5,,,2960,1017.53,190.00,4.77,5.60,2.33,1.00,3.72,,,
2013-07-01 22:00,14.4,,,2960,1017.90,191.90,5.17,5.76,2.51,1.00,4.45,,,
2013-07-01 23:00,14.5,3.6,4.2,2960,1018.27,,,,,0.97,,207.80,5.10,2.55
2013-07-02 00:00,14.6,,,2960,1018.21,200.10,4.15,4.97,1.82,1.00,3.54,,,
2013-07-02 01:00,14.7,,,2960,1018.76,185.10,4.13,4.84,1.48,1.00,3.26,,,
2013-07-02 02:00,15.0,,,2960,1018.64,176.60,5.63,6.83,2.88,1.00,4.39,,,
2013-07-02 03:00,14.9,,,2960,1019.00,224.00,4.13,5.55,1.64,1.00,3.17,,,
2013-07-02 04:00,14.8,,,2960,1018.94,227.80,7.96,8.63,3.34,1.00,5.33,,,
2013-07-02 05:00,15.0,,,2960,1019.07,270.10,5.80,6.41,2.46,1.00,4.43,,,
2013-07-02 06:00,14.6,,,2960,1019.07,260.70,3.17,3.94,1.49,1.00,2.82,,,
2013-07-02 07:00,14.8,,,2960,1019.49,217.00,4.14,4.93,1.76,1.00,3.41,,,
2013-07-02 08:00,14.4,,,2960,1019.80,183.80,3.56,4.32,0.72,1.00,2.79,,,
2013-07-02 09:00,14.9,,,2960,1020.29,201.00,3.18,3.97,1.33,1.00,2.75,,,
2013-07-02 10:00,14.5,,,2960,1020.23,173.50,3.35,6.81,0.80,1.00,2.70,,,
2013-07-02 11:00,14.4,,,2960,1020.66,195.60,3.15,3.85,0.88,1.00,2.40,,,
2013-07-02 12:00,14.6,,,2960,1021.21,101.00,1.30,2.34,0.00,1.00,0.67,,,
2013-07-02 13:00,15.8,,,2960,1021.28,254.30,3.00,3.38,0.29,1.00,1.93,,,
2013-07-02 14:00,15.5,,,2961,1021.21,216.40,3.69,4.30,1.66,1.00,2.97,,,
2013-07-02 15:00,14.8,,,2961,1021.40,120.00,1.32,2.08,0.05,1.00,0.87,,,
2013-07-02 16:00,15.4,,,2960,1021.58,329.20,1.32,2.20,0.03,1.00,0.77,,,
2013-07-02 17:00,14.9,,,2961,1021.71,187.80,2.90,3.38,0.80,1.00,2.21,,,
2013-07-02 18:00,15.0,,,2961,1021.58,194.40,2.80,3.41,1.06,1.00,2.48,,,
2013-07-02 19:00,15.1,,,2961,1021.40,201.40,2.89,3.57,0.77,1.00,2.24,,,
2013-07-02 20:00,14.9,,,2961,1021.28,205.70,3.03,3.54,1.29,1.00,2.42,,,
2013-07-02 21:00,14.6,,,2960,1020.85,288.90,1.67,2.35,0.07,1.00,1.16,,,
2013-07-02 22:00,13.9,,,2960,1020.72,21.87,2.77,3.71,0.40,1.00,1.99,,,
2013-07-02 23:00,13.6,,,2960,1021.03,32.20,3.16,4.14,0.52,1.00,2.11,,,
2013-07-03 00:00,13.4,,,2960,1021.46,351.80,2.26,3.09,0.16,1.00,1.68,,,
2013-07-03 01:00,13.1,2.5,3.2,2960,1021.52,,,,,0.94,,17.97,3.92,1.57
2013-07-03 02:00,13.1,,,2960,1022.01,4.65,2.63,3.67,0.49,1.00,2.12,,,
2013-07-03 03:00,13.1,,,2960,1021.77,5.52,1.54,2.21,0.02,1.00,0.97,,,
2013-07-03 04:00,13.0,,,2960,1021.65,350.83,3.21,4.06,1.14,1.00,2.74,,,
2013-07-03 05:00,13.0,,,2960,1021.15,14.62,1.42,2.29,0.03,1.00,1.02,,,
2013-07-03 06:00,13.2,,,2960,1020.78,161.00,1.01,1.49,0.02,1.00,0.57,,,
2013-07-03 07:00,,,,,,,,,,,,,,
2013-07-03 08:00,13.1,2.5,3.1,2960,1020.35,,,,,0.81,,356.47,3.72,1.18
2013-07-03 09:00,13.0,,,2960,1020.85,4.18,2.46,3.33,0.17,1.00,1.69,,,
2013-07-03 10:00,13.1,2.7,3.3,2960,1021.40,,,,,0.98,,0.99,4.12,1.57
2013-07-03 11:00,13.1,1.6,2.0,2960,1021.46,,,,,0.23,,354.65,2.55,0.78
2013-07-03 12:00,13.2,0.7,0.9,2960,1021.83,,,,,0.00,,339.00,1.18,0.00
2013-07-03 13:00,13.4,,,2960,1021.89,224.60,2.28,3.01,0.72,1.00,1.87,,,
2013-07-03 14:00,13.6,,,2960,1022.08,228.80,2.73,3.49,1.51,1.00,2.44,,,
2013-07-03 15:00,13.8,,,2960,1021.77,211.40,3.18,3.98,1.45,1.00,2.78,,,
2013-07-03 16:00,14.1,,,2961,1021.83,275.20,2.03,2.48,0.98,1.00,1.69,,,
2013-07-03 17:00,14.4,,,2961,1021.71,234.00,2.87,3.11,1.13,1.00,2.32,,,
2013-07-03 18:00,14.8,,,2961,1021.46,312.60,1.75,2.08,0.46,1.00,1.34,,,
2013-07-03 19:00,15.0,,,2960,1021.15,288.10,1.46,1.79,0.62,1.00,1.16,,,
2013-07-03 20:00,15.3,,,2960,1020.78,217.10,1.81,2.20,0.06,1.00,1.32,,,
2013-07-03 21:00,15.5,,,2926,1020.48,219.20,2.76,3.29,1.52,1.00,2.33,,,
2013-07-03 22:00,,,,,,,,,,,,,,
2013-07-03 23:00,15.1,,,2499,1019.56,191.30,3.06,3.60,1.31,1.00,2.37,,,
2013-07-04 00:00,14.9,,,1996,1019.49,189.10,3.20,3.85,1.75,1.00,2.84,,,
2013-07-04 01:00,15.1,,,2417,1019.92,199.00,2.89,3.73,1.32,1.00,2.53,,,
2013-07-04 02:00,15.4,,,2115,1019.74,206.30,4.21,4.91,2.42,1.00,3.61,,,
2013-07-04 03:00,15.3,,,2183,1019.74,217.20,4.78,5.42,3.24,1.00,4.39,,,
2013-07-04 04:00,,,,,,,,,,,,,,
2013-07-04 05:00,15.6,,,2707,1019.43,236.90,6.72,7.30,4.66,1.00,5.99,,,
2013-07-04 06:00,15.5,,,2548,1019.31,241.00,7.70,8.24,5.25,1.00,6.77,,,
2013-07-04 07:00,15.6,,,2636,1018.94,246.40,8.62,9.68,5.39,1.00,7.54,,,
2013-07-04 08:00,15.1,,,2940,1018.94,244.50,7.00,7.78,4.67,1.00,6.32,,,
2013-07-04 09:00,14.7,,,2844,1019.25,249.50,6.08,6.91,3.73,1.00,5.28,,,
2013-07-04 10:00,15.2,,,2937,1019.56,255.40,5.04,5.67,3.39,1.00,4.61,,,
2013-07-04 11:00,15.1,,,2863,1019.92,257.00,4.27,4.96,2.34,1.00,3.77,,,
2013-07-04 12:00,15.3,,,1676,1020.11,265.40,4.65,5.19,2.93,1.00,4.13,,,
2013-07-04 13:00,14.5,,,2687,1020.42,264.40,3.98,4.63,1.68,1.00,3.17,,,
2013-07-04 14:00,14.4,3.0,3.5,2960,1020.29,,,,,0.70,,259.20,4.12,2.16
2013-07-04 15:00,14.7,,,2961,1020.29,262.10,4.22,5.22,2.55,1.00,3.76,,,
2013-07-04 16:00,14.9,,,2961,1019.92,253.60,3.76,4.35,1.80,1.00,3.41,,,
2013-07-04 17:00,15.0,,,2922,1019.99,258.40,4.20,4.66,2.29,1.00,3.58,,,
2013-07-04 18:00,15.2,,,2882,1019.80,239.20,3.68,4.18,1.91,1.00,3.24,,,
2013-07-04 19:00,,,,,,,,,,,,,,
2013-07-04 20:00,15.8,,,2960,1018.64,229.10,3.92,4.95,2.45,1.00,3.52,,,
2013-07-04 21:00,15.9,,,2960,1018.27,237.80,3.45,3.84,2.13,1.00,3.06,,,
2013-07-04 22:00,15.9,,,2960,1018.02,232.20,4.71,5.27,3.18,1.00,4.24,,,
2013-07-04 23:00,17.0,,,2960,1018.08,228.30,4.71,5.35,2.90,1.00,4.11,,,
2013-07-05 00:00,15.8,,,2573,1017.96,214.60,2.89,3.76,1.43,1.00,2.49,,,
2013-07-05 01:00,16.2,,,2960,1017.47,209.30,4.97,5.52,3.23,1.00,4.37,,,
2013-07-05 02:00,16.2,,,2953,1017.41,212.40,5.16,5.78,3.10,1.00,4.59,,,
2013-07-05 03:00,16.3,,,2960,1017.53,209.70,5.20,5.89,3.29,1.00,4.65,,,
2013-07-05 04:00,16.2,,,2960,1017.35,215.50,5.74,6.48,3.18,1.00,5.14,,,
2013-07-05 05:00,16.3,,,2960,1017.22,228.30,6.14,6.84,3.71,1.00,5.35,,,
2013-07-05 06:00,16.9,,,2960,1017.10,244.40,6.21,7.33,4.02,1.00,5.61,,,
2013-07-05 07:00,16.2,,,2960,1017.04,256.80,5.74,6.64,3.43,1.00,5.10,,,
2013-07-05 08:00,15.7,,,2960,1017.41,265.60,4.37,5.35,2.22,1.00,3.71,,,
2013-07-05 09:00,15.6,,,2960,1017.59,295.20,3.84,4.66,1.83,1.00,2.99,,,
2013-07-05 10:00,16.0,,,2046,1017.90,270.60,4.62,5.26,2.72,1.00,4.06,,,
2013-07-05 11:00,16.5,,,1496,1017.71,266.10,6.47,7.40,4.12,1.00,5.70,,,
2013-07-05 12:00,16.2,,,1665,1018.27,269.40,6.31,6.84,3.85,1.00,5.37,,,
2013-07-05 13:00,16.4,,,2774,1018.27,266.20,6.03,6.33,3.41,1.00,5.08,,,
2013-07-05 14:00,16.1,,,2960,1017.90,255.30,6.22,6.84,3.71,1.00,5.41,,,
2013-07-05 15:00,16.2,,,2960,1017.84,259.90,5.88,6.65,4.07,1.00,5.25,,,
2013-07-05 16:00,16.1,,,2961,1017.71,262.20,5.31,6.23,3.12,1.00,4.68,,,
2013-07-05 17:00,16.1,,,2960,1017.59,263.70,4.02,4.65,1.13,1.00,3.00,,,
2013-07-05 18:00,16.9,,,2960,1017.28,257.60,5.99,7.19,3.39,1.00,5.16,,,
2013-07-05 19:00,17.0,,,2960,1017.28,260.00,5.10,5.91,2.96,1.00,4.48,,,
2013-07-05 20:00,17.2,,,2960,1017.10,249.30,4.95,5.64,2.44,1.00,4.29,,,
2013-07-05 21:00,17.0,,,2960,1016.67,230.10,4.40,5.08,2.18,1.00,3.61,,,
2013-07-05 22:00,17.9,,,2960,1016.24,225.30,5.41,5.83,3.71,1.00,4.76,,,
2013-07-05 23:00,18.1,,,2960,1015.93,225.30,5.18,5.79,3.67,1.00,4.64,,,
2013-07-06 00:00,17.3,,,2959,1015.57,209.40,4.53,5.05,2.69,1.00,4.07,,,
2013-07-06 01:00,17.1,,,2959,1015.51,194.70,4.47,4.93,2.68,1.00,3.89,,,
2013-07-06 02:00,17.5,,,2960,1015.01,211.20,6.63,7.03,3.84,1.00,5.57,,,
2013-07-06 03:00,16.8,,,2960,1015.32,258.00,4.66,5.34,2.61,1.00,4.00,,,
2013-07-06 04:00,16.6,,,2960,1015.08,237.80,5.69,6.29,3.22,1.00,5.11,,,
2013-07-06 05:00,16.7,,,2960,1015.08,232.00,6.26,7.11,3.74,1.00,5.56,,,
2013-07-06 06:00,16.1,,,2960,1015.51,244.00,4.77,5.53,2.76,1.00,4.16,,,
2013-07-06 07:00,,,,,,,,,,,,,,
2013-07-06 08:00,16.3,,,2960,1015.08,248.80,4.52,5.00,2.77,1.00,4.06,,,
2013-07-06 09:00,16.1,,,2960,1015.14,255.40,3.82,4.38,2.43,1.00,3.27,,,
2013-07-06 12:00,16.7,,,2960,1015.26,240.70,2.86,3.41,1.54,1.00,2.41,,,
2013-07-06 13:00,16.4,,,2960,1014.83,236.00,4.85,5.25,3.11,1.00,4.05,,,
2013-07-06 14:00,17.3,,,2960,1014.46,248.00,4.56,4.92,2.76,1.00,3.92,,,
2013-07-06 15:00,17.5,,,2960,1014.40,256.00,3.78,4.28,2.43,1.00,3.47,,,
2013-07-06 16:00,17.4,,,2960,1014.34,262.70,4.86,5.35,2.90,1.00,4.29,,,
2013-07-06 17:00,17.0,,,2960,1013.85,250.10,5.19,5.93,3.24,1.00,4.50,,,
2013-07-06 18:00,17.1,,,2960,1013.85,263.80,5.95,6.97,4.21,1.00,5.35,,,
2013-07-06 19:00,16.8,,,2960,1013.79,252.80,4.02,4.77,2.21,1.00,3.52,,,
2013-07-06 20:00,17.5,,,2960,1013.30,257.80,4.86,5.59,3.01,1.00,4.36,,,
2013-07-06 21:00,17.6,,,2960,1012.69,250.00,6.18,6.81,3.84,1.00,5.39,,,
2013-07-06 22:00,18.0,,,2713,1012.19,249.40,5.16,5.98,3.36,1.00,4.69,,,
2013-07-06 23:00,17.9,,,2490,1011.77,246.90,5.26,5.99,3.21,1.00,4.62,,,
2013-07-07 00:00,17.9,,,2959,1011.83,255.30,5.91,6.69,3.89,1.00,5.11,,,
2013-07-07 01:00,17.7,,,2959,1012.13,255.50,4.71,5.51,2.93,1.00,4.17,,,
2013-07-07 02:00,17.2,,,2960,1012.13,248.20,4.36,4.83,2.82,1.00,3.90,,,
2013-07-07 03:00,17.5,,,2960,1012.26,256.90,5.91,6.39,3.91,1.00,5.14,,,
2013-07-07 04:00,17.3,,,2960,1012.44,279.40,5.20,6.14,3.48,1.00,4.67,,,
2013-07-07 05:00,17.2,,,2960,1012.69,280.30,4.69,5.20,2.94,1.00,4.20,,,
2013-07-07 06:00,16.9,,,2960,1012.56,283.60,4.45,5.19,2.81,1.00,3.97,,,
2013-07-07 07:00,16.8,,,2960,1012.87,258.80,4.29,4.82,2.72,1.00,3.76,,,
2013-07-07 08:00,17.1,,,2960,1012.69,270.40,5.89,6.54,3.68,1.00,5.29,,,
2013-07-07 09:00,16.9,,,2960,1013.05,268.50,4.82,5.66,3.12,1.00,4.36,,,
2013-07-07 10:00,17.0,,,2286,1013.30,264.90,4.23,4.79,2.68,1.00,3.80,,,
2013-07-07 11:00,16.9,,,2960,1013.42,258.20,4.76,5.22,2.51,1.00,3.77,,,
2013-07-07 12:00,16.8,,,2961,1013.24,255.50,4.43,5.04,2.90,1.00,4.00,,,
2013-07-07 13:00,17.5,,,2960,1013.05,259.90,4.51,4.96,2.99,1.00,3.97,,,
2013-07-07 14:00,17.8,,,2960,1013.18,258.50,5.24,5.66,3.48,1.00,4.59,,,
2013-07-07 15:00,18.0,,,2953,1013.30,259.70,4.03,4.48,1.56,1.00,3.63,,,
2013-07-07 16:00,18.4,,,2953,1013.11,278.10,2.55,3.15,0.94,1.00,2.03,,,
2013-07-07 17:00,17.2,,,2957,1012.87,231.50,5.31,6.10,3.17,1.00,4.44,,,